[[{"header":{"parameterUnit":"m.s-1","parameterCategory":1,"la1":30.2992,"la2":30.254,"lo1":-89.0895,"lo2":-89.0443,"dy":0.0025,"dx":0.0025,"nx":19,"ny":19,"refTime":"2026-03-20T21:00:00:Z","depth":0,"parameterNumber":2,"parameterNumberName":"U-component_of_WINDS"},"data":[0,0,0,5.1046,5.1051,5.1286,5.1287,5.1592,5.1595,0,0,0,0,0,0,0,0,0,0,0,5.098,5.0982,5.1045,5.1051,5.1286,5.1287,5.1592,5.1595,0,0,0,0,0,0,0,0,0,0,0,5.0979,5.0981,5.0984,5.1052,5.1286,5.1287,5.1591,5.1412,0,0,0,0,0,0,0,0,0,0,5.1183,5.1125,5.0981,5.0984,5.1054,5.1286,5.1287,5.1403,5.1423,5.1488,0,5.1547,0,5.1576,5.1616,5.1617,0,0,0,5.1049,5.1109,5.1169,5.0984,5.1056,5.1285,5.118,5.1414,5.1437,5.1514,5.1551,5.1562,5.1581,5.1618,5.1619,5.1998,5.2,0,0,5.1036,5.1024,5.1153,5.1184,5.1148,5.1172,5.1187,5.1428,5.1467,5.1552,5.1569,5.1586,5.162,5.1622,5.1997,5.1999,0,0,0,5.1,5.1015,5.1069,5.1171,5.1213,5.1179,5.1196,5.1456,5.1475,5.1572,5.1589,5.1622,5.1625,5.1995,5.1997,5.2076,0,0,0,5.0992,5.0994,5.1064,5.1059,5.1209,5.1338,5.1219,5.1458,5.1486,5.1588,5.1622,5.1628,5.1992,5.1996,5.207,5.2115,0,0,0,5.0963,5.0991,5.1026,5.1057,5.1158,5.1334,5.1367,5.1465,5.1497,5.1617,5.1629,5.1991,5.1995,5.2064,5.2106,5.2209,0,0,0,5.0929,5.1095,5.1027,5.1219,5.1156,5.1382,5.1365,5.1535,5.1648,5.1623,5.1993,5.1997,5.2062,5.21,5.2202,5.2292,5.2328,0,0,5.1132,5.1119,5.1233,5.1179,5.1414,5.1347,5.1594,5.171,5.1733,5.1908,5.1918,5.2072,5.2105,5.2207,5.2543,5.2572,0,0,0,5.1293,5.1375,5.144,5.1546,5.1638,5.1719,5.1798,5.184,5.1989,5.1821,5.2139,5.2159,5.222,5.2262,5.2287,5.2338,5.2017,5.2017,5.2016,5.1563,5.1582,5.1771,5.1818,5.1921,5.1999,5.2084,5.2154,5.2146,5.2221,5.2272,5.2473,5.2523,5.2542,5.2595,5.2323,5.2323,5.2324,5.2324,5.186,5.1977,5.1959,5.2135,5.2154,5.2302,5.2383,5.2371,5.2511,5.2437,5.2491,5.2405,5.2573,5.262,5.233,5.2329,5.2328,5.2328,5.2327,5.2036,5.2095,5.2143,5.2297,5.2413,5.2455,5.2589,5.2602,5.2616,5.267,5.2723,5.2722,5.272,5.2695,5.2696,5.2696,5.2697,5.2698,5.2698,5.2199,5.2251,5.2362,5.2471,5.2539,5.2631,5.271,5.2777,5.2855,5.2854,5.2854,5.2836,5.2587,5.2522,5.2709,5.2707,5.2705,5.2704,5.2704,5.2489,5.2425,5.2596,5.2664,5.2792,5.2904,5.2919,5.3055,5.3113,5.3177,5.3148,5.2962,5.295,5.2931,5.2877,5.3145,5.3145,5.3145,5.3145,5.2635,5.2631,5.2807,5.2914,5.3021,5.3051,5.3242,5.3304,5.3358,5.3395,5.3359,5.3289,5.3269,5.3269,5.3242,5.3192,5.3534,5.3535,5.3535,5.2813,5.2818,5.2978,5.303,5.313,5.3215,5.3393,5.3516,5.3565,5.3551,5.3423,5.3406,5.3295,5.3258,5.3239,5.3197,5.3106,0,0]},{"header":{"parameterUnit":"m.s-1","parameterCategory":1,"la1":30.2992,"la2":30.254,"lo1":-89.0895,"lo2":-89.0443,"dy":0.0025,"dx":0.0025,"nx":19,"ny":19,"refTime":"2026-03-20T21:00:00:Z","depth":0,"parameterNumber":3,"parameterNumberName":"V-component_of_WINDS"},"data":[0,0,0,3.2049,3.2052,3.22,3.2201,3.2382,3.2383,0,0,0,0,0,0,0,0,0,0,0,3.2003,3.2004,3.2049,3.2052,3.22,3.2201,3.2381,3.2383,0,0,0,0,0,0,0,0,0,0,0,3.2002,3.2004,3.2005,3.2053,3.22,3.2201,3.2381,3.2272,0,0,0,0,0,0,0,0,0,0,3.2129,3.2086,3.2004,3.2005,3.2054,3.22,3.2201,3.2267,3.2279,3.2312,0,3.2344,0,3.2366,3.2395,3.2396,0,0,0,3.2054,3.2076,3.2118,3.2006,3.2055,3.2199,3.2134,3.2273,3.2287,3.2328,3.2346,3.2353,3.2369,3.2396,3.2397,3.2591,3.2592,0,0,3.2045,3.2028,3.2108,3.2126,3.2106,3.2129,3.2138,3.2282,3.23,3.2347,3.2357,3.2372,3.2397,3.2399,3.2591,3.2592,0,0,0,3.2021,3.2022,3.2061,3.2119,3.2146,3.2133,3.2144,3.2293,3.2307,3.2359,3.2375,3.2398,3.2401,3.259,3.2591,3.2617,0,0,0,3.2016,3.2008,3.2057,3.2048,3.2143,3.2222,3.2152,3.2297,3.2314,3.2374,3.2398,3.2402,3.2589,3.259,3.2614,3.2632,0,0,0,3.1994,3.2006,3.2027,3.2047,3.211,3.222,3.2243,3.2301,3.2323,3.2396,3.2403,3.2588,3.259,3.2612,3.2628,3.2677,0,0,0,3.1965,3.2047,3.2027,3.2124,3.2109,3.2236,3.2242,3.2337,3.2402,3.2399,3.2589,3.2591,3.2611,3.2625,3.2674,3.2715,3.2731,0,0,3.2059,3.2058,3.2117,3.2102,3.2229,3.2214,3.2344,3.2419,3.2441,3.2539,3.2544,3.2615,3.2628,3.2677,3.2825,3.2838,0,0,0,3.214,3.2182,3.2219,3.2282,3.2342,3.2394,3.2452,3.2479,3.2564,3.2489,3.2647,3.2655,3.2684,3.2704,3.2715,3.2741,3.26,3.26,3.2599,3.2248,3.2273,3.237,3.2412,3.2472,3.253,3.258,3.2626,3.2633,3.267,3.2699,3.2787,3.281,3.2818,3.2844,3.2723,3.2723,3.2723,3.2723,3.2388,3.245,3.2457,3.2554,3.2578,3.2659,3.2717,3.2718,3.2796,3.2767,3.2794,3.276,3.2831,3.2855,3.2725,3.2725,3.2725,3.2724,3.2724,3.2461,3.2495,3.2528,3.2619,3.2686,3.2724,3.2798,3.2817,3.2835,3.2862,3.2894,3.2893,3.2895,3.2876,3.2876,3.2876,3.2877,3.2877,3.2877,3.2523,3.256,3.2621,3.2691,3.2732,3.2789,3.2846,3.2887,3.2936,3.2944,3.2944,3.2946,3.2834,3.2804,3.2882,3.2881,3.288,3.288,3.288,3.2655,3.2628,3.2722,3.2764,3.2846,3.291,3.2934,3.3014,3.305,3.3085,3.3081,3.2995,3.2995,3.2987,3.2963,3.3076,3.3076,3.3076,3.3076,3.2716,3.2718,3.2818,3.2883,3.2948,3.2978,3.3081,3.3126,3.3167,3.319,3.3176,3.3146,3.3137,3.3142,3.3131,3.3108,3.3257,3.3257,3.3257,3.2797,3.2806,3.2892,3.2934,3.2999,3.3054,3.3151,3.3222,3.3263,3.3265,3.3208,3.3201,3.3152,3.3135,3.3135,3.3117,3.3077,0,0]}]]